Find Starlink 32320

NORAD ID: 61638 Int'l Des: 2024-191 Owner: SPXS Country: US Constellation: starlink operational
LEOCIRCULAR

当前视图

正在加载3D地球...

About Starlink 32320

Starlink 32320 (NORAD 61638) is a starlink constellation satellite (v2 mini) launched Oct 23, 2024 by SPXS of US. It operates in LEO, CIRCULAR orbit with a mass of 730.00 kg.

即将过境

Passes for default location (London). Set your location on the main map for personalized predictions.

高度历史

Loading altitude history...

两行轨道根数

1 61638U 24191T 26264.92878372 -.00000084 00000-0 64623-5 0 9996
2 61638 43.0007 130.1406 0001434 268.2920 91.7767 15.27573507107508
Epoch: Sep 21, 2026 • Age: 28 hours

当前状态

高度 491.7 km
远地点 / 近地点 N/A
速度 7.62 km/s
星下点 -33.52°S, 43.19°W
发射日期 Oct 23, 2024
运行时间 1.9 years
类型 internet

技术详情

分类 Payload
质量 730.00 kg
干质量 700.00 kg
长度 0.30 m
跨度 29.00 m
形状 ? Box + pan
制造商 SPXS
平台类型 Starlink V2M
阶段状态 In Orbit
所有者/国家 SPXS/US

Most Searched